TimeMDT,TemperatureF,Dew PointF,Humidity,Sea Level PressureIn,VisibilityMPH,Wind Direction,Wind SpeedMPH,Gust SpeedMPH,PrecipitationIn,Events,Conditions,WindDirDegrees,DateUTC
12:55 AM,37.9,15.1,39,30.17,10.0,Calm,Calm,-,N/A,,Clear,0,2012-10-05 06:55:00
1:55 AM,39.4,16.0,39,30.17,10.0,WNW,8.1,-,N/A,,Clear,300,2012-10-05 07:55:00
2:55 AM,41.7,17.4,38,30.17,10.0,West,13.8,-,N/A,,Clear,280,2012-10-05 08:55:00
3:55 AM,43.0,18.5,37,30.19,10.0,NNW,12.7,-,N/A,,Clear,340,2012-10-05 09:55:00
3:57 AM,42.8,19.4,39,30.19,10.0,North,12.7,-,N/A,,Clear,350,2012-10-05 09:57:00
4:55 AM,39.4,20.1,46,30.20,10.0,NNW,11.5,-,N/A,,Clear,330,2012-10-05 10:55:00
5:55 AM,37.2,20.8,52,30.22,10.0,North,5.8,-,N/A,,Clear,350,2012-10-05 11:55:00
6:55 AM,32.4,20.3,61,30.25,10.0,North,3.5,-,N/A,,Clear,350,2012-10-05 12:55:00
7:55 AM,30.6,20.1,65,30.28,10.0,Calm,Calm,-,N/A,,Mostly Cloudy,0,2012-10-05 13:55:00
8:55 AM,33.3,20.1,59,30.31,10.0,NNW,4.6,-,N/A,,Clear,340,2012-10-05 14:55:00
9:55 AM,42.4,21.0,43,30.31,10.0,NW,3.5,-,N/A,,Clear,310,2012-10-05 15:55:00
10:55 AM,47.5,19.4,33,30.31,10.0,Variable,4.6,-,N/A,,Clear,0,2012-10-05 16:55:00
11:55 AM,51.6,19.8,29,30.30,10.0,ESE,10.4,-,N/A,,Clear,120,2012-10-05 17:55:00
12:55 PM,54.1,19.8,26,30.29,10.0,SE,8.1,-,N/A,,Clear,130,2012-10-05 18:55:00
1:55 PM,55.8,19.8,25,30.25,10.0,ESE,4.6,-,N/A,,Clear,120,2012-10-05 19:55:00
2:55 PM,58.1,18.7,22,30.22,10.0,WNW,3.5,-,N/A,,Clear,290,2012-10-05 20:55:00
3:55 PM,59.7,17.6,19,30.19,10.0,Variable,4.6,-,N/A,,Clear,0,2012-10-05 21:55:00
4:55 PM,60.8,14.4,16,30.18,10.0,WNW,8.1,-,N/A,,Clear,290,2012-10-05 22:55:00
5:55 PM,60.6,18.7,20,30.17,10.0,West,6.9,-,N/A,,Clear,260,2012-10-05 23:55:00
6:55 PM,57.2,17.2,21,30.19,10.0,WNW,8.1,-,N/A,,Clear,300,2012-10-06 00:55:00
7:55 PM,51.6,14.2,23,30.20,10.0,NW,10.4,-,N/A,,Clear,320,2012-10-06 01:55:00
8:55 PM,44.8,13.8,29,30.21,10.0,NW,10.4,-,N/A,,Clear,310,2012-10-06 02:55:00
9:55 PM,44.1,14.2,30,30.20,10.0,NNW,9.2,-,N/A,,Clear,340,2012-10-06 03:55:00
10:55 PM,42.1,15.1,34,30.19,10.0,NNW,9.2,-,N/A,,Clear,330,2012-10-06 04:55:00
11:55 PM,37.0,15.1,41,30.21,10.0,West,4.6,-,N/A,,Clear,280,2012-10-06 05:55:00